GFSSW_prec_precacc_348.txt.gz
Total_Precipitation_Accumulation
0.13 0.15 0.18 0.18 0.18 0.21 0.23 0.23 0.23 0.22 0.21 0.19 0.20 0.19 0.20 0.24 0.16 0.09 0.06 0.07 0.19 0.20 0.08 0.01 0.02 0.04 0.24 0.34 0.65 1.10 1.00 0.52 0.36 0.14 0.05 0.09 0.12 0.09 0.07 0.07 0.09 0.13 0.08 0.25 0.49
0.11 0.14 0.18 0.17 0.19 0.21 0.22 0.20 0.19 0.19 0.20 0.23 0.27 0.29 0.34 0.33 0.09 0.06 0.10 0.14 0.10 0.14 0.02 0.02 0.02 0.06 0.18 0.27 0.66 1.14 0.68 0.15 0.11 0.27 0.21 0.23 0.25 0.20 0.18 0.15 0.15 0.14 0.19 0.52 0.68
0.13 0.15 0.15 0.18 0.21 0.20 0.19 0.20 0.20 0.19 0.19 0.24 0.31 0.43 0.53 0.24 0.05 0.07 0.11 0.07 0.14 0.07 0.02 0.01 0.04 0.16 0.17 0.26 0.42 0.56 0.39 0.09 0.05 0.13 0.44 0.50 0.43 0.31 0.36 0.27 0.21 0.22 0.44 0.62 0.91
0.19 0.19 0.17 0.19 0.24 0.22 0.21 0.19 0.20 0.22 0.25 0.26 0.37 0.51 0.41 0.21 0.07 0.03 0.12 0.07 0.06 0.03 0.04 0.04 0.11 0.23 0.20 0.20 0.21 0.39 0.10 0.15 0.10 0.13 0.31 0.57 0.68 0.42 0.42 0.32 0.20 0.29 0.59 0.88 1.11
0.21 0.23 0.27 0.29 0.27 0.24 0.19 0.18 0.19 0.24 0.27 0.29 0.42 0.57 0.42 0.19 0.05 0.00 0.00 0.02 0.03 0.05 0.07 0.08 0.13 0.19 0.29 0.17 0.23 0.29 0.13 0.24 0.24 0.28 0.33 0.46 0.55 0.74 0.52 0.36 0.29 0.32 0.47 0.93 1.19
0.29 0.34 0.34 0.35 0.35 0.30 0.24 0.26 0.29 0.30 0.27 0.29 0.50 0.56 0.47 0.18 0.00 0.00 0.00 0.00 0.01 0.05 0.15 0.18 0.17 0.20 0.30 0.23 0.31 0.19 0.15 0.18 0.26 0.43 0.47 0.63 0.50 0.77 0.66 0.56 0.31 0.30 0.32 0.80 1.09
0.29 0.33 0.43 0.40 0.32 0.33 0.41 0.41 0.36 0.28 0.29 0.38 0.54 0.53 0.45 0.08 0.00 0.00 0.01 0.04 0.04 0.09 0.10 0.22 0.31 0.39 0.33 0.31 0.20 0.19 0.32 0.33 0.23 0.35 0.52 0.82 0.76 0.62 0.55 0.94 0.58 0.19 0.25 0.65 1.10
0.32 0.37 0.40 0.38 0.46 0.47 0.39 0.33 0.41 0.43 0.43 0.44 0.40 0.58 0.37 0.00 0.00 0.00 0.00 0.03 0.08 0.13 0.16 0.25 0.52 0.42 0.35 0.31 0.19 0.30 0.62 0.54 0.27 0.35 0.66 1.29 1.05 0.22 0.46 1.12 0.85 0.19 0.24 0.48 0.66
0.45 0.41 0.38 0.39 0.41 0.46 0.46 0.46 0.42 0.39 0.47 0.47 0.48 0.61 0.22 0.00 0.00 0.00 0.00 0.00 0.05 0.16 0.22 0.33 0.58 0.62 0.46 0.49 0.53 0.53 0.42 0.17 0.17 0.25 0.70 1.13 0.89 0.38 0.42 1.06 1.12 0.48 0.24 0.44 0.66
0.47 0.47 0.45 0.44 0.51 0.68 0.72 0.61 0.47 0.46 0.34 0.48 0.82 1.01 0.18 0.00 0.00 0.00 0.00 0.01 0.03 0.18 0.43 0.44 0.61 0.81 0.79 0.88 0.68 0.24 0.20 0.13 0.19 0.17 0.41 0.63 0.61 0.42 0.50 0.98 1.39 0.90 0.44 0.86 1.35
0.51 0.56 0.57 0.63 0.66 0.88 1.05 0.93 0.97 0.85 0.75 0.39 0.35 0.29 0.06 0.03 0.05 0.02 0.01 0.03 0.09 0.22 0.22 0.35 0.63 0.62 0.39 0.42 0.21 0.15 0.21 0.21 0.08 0.18 0.39 0.46 0.39 0.61 0.58 1.07 1.36 1.17 0.77 1.09 1.42
0.67 0.70 0.88 0.99 0.93 0.94 1.00 0.86 0.78 1.23 0.77 0.18 0.13 0.11 0.06 0.05 0.14 0.11 0.15 0.20 0.19 0.11 0.17 0.55 0.46 0.04 0.08 0.29 0.39 0.28 0.24 0.13 0.11 0.05 0.28 0.36 0.38 0.67 0.74 1.26 1.48 1.58 1.36 1.15 1.12
0.97 1.02 1.17 1.27 1.34 1.08 0.75 0.61 0.59 0.89 1.31 0.27 0.07 0.05 0.01 0.10 0.15 0.16 0.29 0.40 0.23 0.13 0.15 0.25 0.17 0.05 0.11 0.43 0.69 0.52 0.36 0.14 0.09 0.08 0.22 0.32 0.65 0.84 0.78 1.11 0.80 1.03 1.49 1.71 1.41
1.14 1.21 1.41 1.50 1.50 0.89 0.86 0.84 0.82 1.51 2.56 0.49 0.04 0.06 0.01 0.09 0.17 0.10 0.30 0.59 0.61 0.15 0.16 0.26 0.08 0.15 0.19 0.26 0.50 0.69 0.24 0.22 0.17 0.47 0.70 0.39 1.02 0.45 0.46 0.66 0.24 0.46 0.91 1.66 1.22
1.51 1.58 1.81 2.15 1.50 1.36 1.09 1.16 1.68 2.73 3.74 0.39 0.09 0.05 0.05 0.16 0.16 0.13 0.31 0.80 0.91 0.47 0.31 0.22 0.05 0.25 0.34 0.17 0.26 0.40 0.25 0.27 0.34 0.74 0.73 0.56 1.14 0.31 0.22 0.28 0.19 0.37 0.65 1.13 1.63
1.87 2.40 2.27 2.26 2.22 1.31 1.17 2.02 2.93 4.48 3.29 0.36 0.19 0.13 0.21 0.22 0.08 0.34 0.73 1.21 1.07 0.98 0.71 0.21 0.07 0.16 0.20 0.10 0.17 0.33 0.83 0.67 0.90 1.28 2.26 0.81 0.66 0.27 0.34 0.37 0.22 0.47 0.59 0.65 1.43
2.46 2.68 2.95 2.37 2.05 1.71 2.41 3.90 5.21 3.98 0.92 0.51 0.30 0.27 0.33 0.46 0.40 0.35 1.28 1.68 1.56 1.80 1.42 0.64 0.19 0.04 0.18 0.32 0.55 0.96 1.56 2.61 2.62 2.77 2.11 0.46 0.42 0.44 0.27 0.23 0.47 0.69 0.75 0.81 1.30
2.36 2.53 2.08 1.86 1.75 2.56 3.96 5.47 5.72 1.29 0.58 0.41 0.32 0.43 0.39 0.51 0.56 0.39 0.67 1.12 1.30 1.21 1.41 0.84 0.53 0.11 0.18 0.25 0.54 1.00 1.52 1.98 1.51 1.14 0.61 0.33 0.59 0.30 0.15 0.19 0.48 0.67 0.80 0.80 0.79
2.43 2.19 2.20 1.72 1.67 2.94 5.06 5.98 2.60 0.98 0.54 0.42 0.35 0.63 0.66 0.88 1.17 0.85 0.61 0.81 1.18 1.68 1.86 1.46 0.37 0.08 0.05 0.05 0.22 0.65 1.24 1.04 0.94 0.49 0.52 0.32 0.21 0.18 0.07 0.07 0.17 0.37 0.69 0.88 0.81
2.84 2.79 2.60 1.98 2.49 3.72 5.29 3.59 0.88 0.33 0.55 0.61 0.83 0.65 0.78 0.80 1.32 1.77 1.46 0.86 0.87 1.49 1.81 1.74 1.36 0.21 0.23 0.28 0.29 0.42 0.51 1.05 1.71 1.73 0.88 0.22 0.16 0.19 0.16 0.17 0.13 0.30 0.62 0.96 0.80
3.65 3.92 2.34 2.38 3.73 5.04 4.91 1.61 0.35 0.22 0.65 1.20 0.82 0.80 0.60 1.26 1.80 1.98 2.32 1.10 0.85 0.78 1.50 2.08 1.94 0.82 0.50 0.56 0.35 0.49 1.09 0.96 1.40 1.14 0.98 0.50 0.26 0.43 0.47 0.46 0.37 0.48 0.73 1.23 1.21
4.21 3.97 2.21 2.92 5.01 4.47 2.07 0.76 0.42 0.40 0.69 0.96 0.91 0.74 0.68 0.83 1.81 1.72 1.48 1.54 1.03 0.83 1.16 1.40 2.23 1.42 0.56 0.41 0.32 0.31 0.74 1.02 1.41 1.25 0.80 0.76 0.42 0.39 0.44 0.47 0.44 0.62 0.70 1.23 1.45
4.95 3.15 3.03 3.49 4.20 2.50 1.07 0.59 0.80 0.60 0.77 1.00 0.79 0.73 0.59 0.69 1.45 0.94 0.99 0.92 1.08 1.18 1.53 1.60 2.21 2.00 1.53 1.43 0.69 0.66 0.37 0.62 0.76 0.91 0.82 0.83 0.40 0.21 0.31 0.36 0.39 0.74 0.67 1.17 1.37
5.84 4.20 4.00 4.50 2.75 1.43 1.31 1.09 0.86 0.54 0.65 0.67 0.65 0.61 0.74 0.57 0.75 0.89 0.60 0.54 0.54 1.08 1.30 1.49 1.59 1.37 1.12 1.52 1.44 1.13 0.81 0.52 0.76 0.84 0.73 0.54 0.25 0.18 0.18 0.27 0.31 0.53 0.83 1.23 1.40
6.08 3.83 2.48 3.02 2.14 1.38 1.94 1.59 0.64 0.75 0.78 0.79 0.71 0.55 0.98 1.21 0.75 0.67 0.64 0.67 0.62 0.88 1.31 1.83 1.52 0.85 0.25 0.23 0.54 0.61 0.75 0.68 0.79 0.53 0.67 0.39 0.31 0.24 0.33 0.37 0.48 0.67 0.85 1.04 1.16
5.31 2.74 2.20 1.53 0.96 1.64 2.24 1.56 0.64 0.95 1.11 0.82 0.84 0.48 0.68 0.94 0.98 1.01 1.09 1.05 1.11 1.15 1.76 1.91 1.63 0.69 0.43 0.19 0.31 0.36 0.38 0.59 0.65 0.36 0.24 0.24 0.28 0.21 0.25 0.28 0.48 0.73 0.88 0.98 1.00
3.60 2.38 3.27 3.01 1.73 2.00 1.75 1.14 0.99 1.26 1.20 0.62 0.60 0.90 0.69 0.53 0.49 0.78 1.04 1.09 1.17 1.40 1.65 1.78 1.58 0.93 0.83 0.39 0.83 0.98 0.71 0.52 0.52 0.49 0.31 0.34 0.27 0.12 0.16 0.24 0.70 0.85 0.96 1.03 1.02

GFSSW_prec_precacc_351.txt.gz
Total_Precipitation_Accumulation
0.13 0.15 0.18 0.18 0.18 0.21 0.23 0.23 0.23 0.22 0.21 0.19 0.20 0.19 0.20 0.24 0.16 0.09 0.06 0.07 0.19 0.20 0.08 0.01 0.02 0.04 0.24 0.34 0.65 1.10 1.00 0.52 0.36 0.14 0.05 0.09 0.12 0.09 0.07 0.07 0.09 0.13 0.08 0.25 0.49
0.11 0.14 0.18 0.17 0.19 0.21 0.22 0.20 0.19 0.19 0.20 0.23 0.27 0.29 0.34 0.33 0.09 0.06 0.10 0.14 0.10 0.14 0.02 0.02 0.02 0.06 0.18 0.27 0.66 1.14 0.68 0.15 0.11 0.27 0.21 0.23 0.25 0.20 0.18 0.15 0.15 0.14 0.19 0.52 0.68
0.13 0.15 0.15 0.18 0.21 0.20 0.19 0.20 0.20 0.19 0.19 0.24 0.31 0.43 0.53 0.24 0.05 0.07 0.11 0.07 0.14 0.07 0.02 0.01 0.04 0.16 0.17 0.26 0.42 0.56 0.39 0.09 0.05 0.13 0.44 0.50 0.43 0.31 0.36 0.27 0.21 0.22 0.44 0.62 0.91
0.19 0.19 0.17 0.19 0.24 0.22 0.21 0.19 0.20 0.22 0.25 0.26 0.37 0.51 0.41 0.21 0.07 0.03 0.12 0.07 0.06 0.03 0.04 0.04 0.11 0.23 0.20 0.20 0.21 0.39 0.10 0.15 0.10 0.13 0.31 0.57 0.68 0.42 0.42 0.32 0.20 0.29 0.59 0.88 1.11
0.21 0.23 0.27 0.29 0.27 0.24 0.19 0.18 0.19 0.24 0.27 0.29 0.42 0.57 0.42 0.19 0.05 0.00 0.00 0.02 0.03 0.05 0.07 0.09 0.13 0.19 0.29 0.17 0.23 0.29 0.13 0.24 0.24 0.28 0.33 0.46 0.55 0.74 0.52 0.36 0.29 0.32 0.47 0.93 1.19
0.29 0.34 0.34 0.35 0.35 0.30 0.24 0.26 0.29 0.30 0.27 0.29 0.50 0.57 0.47 0.18 0.00 0.00 0.00 0.00 0.01 0.05 0.15 0.20 0.18 0.20 0.30 0.23 0.31 0.19 0.15 0.18 0.26 0.43 0.47 0.63 0.50 0.77 0.66 0.56 0.31 0.30 0.32 0.80 1.09
0.29 0.33 0.43 0.40 0.32 0.33 0.41 0.41 0.36 0.28 0.29 0.38 0.54 0.53 0.45 0.08 0.00 0.00 0.01 0.04 0.04 0.09 0.10 0.22 0.32 0.42 0.34 0.31 0.20 0.19 0.32 0.33 0.23 0.35 0.52 0.82 0.76 0.62 0.55 0.94 0.58 0.19 0.25 0.65 1.10
0.32 0.37 0.40 0.38 0.46 0.47 0.39 0.33 0.41 0.43 0.43 0.44 0.40 0.58 0.37 0.00 0.00 0.00 0.00 0.03 0.08 0.13 0.16 0.25 0.53 0.46 0.36 0.31 0.19 0.30 0.62 0.54 0.27 0.35 0.66 1.29 1.05 0.22 0.46 1.12 0.85 0.19 0.24 0.48 0.66
0.45 0.41 0.38 0.39 0.41 0.46 0.46 0.46 0.42 0.39 0.47 0.47 0.48 0.61 0.22 0.00 0.00 0.00 0.00 0.00 0.05 0.16 0.22 0.33 0.59 0.67 0.50 0.50 0.54 0.53 0.42 0.17 0.17 0.25 0.70 1.13 0.89 0.38 0.42 1.06 1.12 0.48 0.24 0.44 0.66
0.47 0.47 0.45 0.44 0.51 0.68 0.72 0.61 0.47 0.46 0.34 0.48 0.82 1.01 0.18 0.00 0.00 0.00 0.00 0.01 0.03 0.18 0.46 0.46 0.64 0.91 0.85 0.92 0.71 0.24 0.20 0.13 0.19 0.17 0.41 0.63 0.61 0.42 0.50 0.98 1.39 0.90 0.44 0.86 1.35
0.51 0.56 0.57 0.63 0.66 0.88 1.05 0.93 0.97 0.85 0.75 0.39 0.35 0.29 0.06 0.03 0.05 0.02 0.01 0.03 0.10 0.25 0.26 0.40 0.68 0.65 0.47 0.45 0.22 0.15 0.21 0.21 0.08 0.18 0.39 0.46 0.39 0.61 0.58 1.07 1.36 1.17 0.77 1.09 1.42
0.67 0.70 0.88 0.99 0.93 0.94 1.00 0.86 0.78 1.24 0.78 0.18 0.13 0.11 0.06 0.05 0.14 0.11 0.15 0.21 0.21 0.13 0.20 0.60 0.48 0.05 0.10 0.33 0.45 0.30 0.25 0.13 0.12 0.05 0.28 0.36 0.38 0.67 0.74 1.26 1.48 1.58 1.36 1.15 1.12
0.97 1.02 1.17 1.27 1.34 1.08 0.75 0.61 0.59 0.89 1.32 0.27 0.07 0.05 0.01 0.10 0.15 0.16 0.30 0.41 0.24 0.14 0.18 0.30 0.27 0.06 0.19 0.45 0.78 0.58 0.38 0.14 0.12 0.08 0.22 0.32 0.66 0.84 0.78 1.11 0.80 1.03 1.49 1.71 1.41
1.14 1.21 1.41 1.50 1.50 0.89 0.86 0.84 0.82 1.51 2.56 0.49 0.04 0.06 0.01 0.09 0.18 0.10 0.31 0.61 0.63 0.17 0.19 0.30 0.17 0.31 0.27 0.29 0.54 0.79 0.28 0.24 0.18 0.47 0.72 0.39 1.03 0.45 0.46 0.66 0.24 0.46 0.91 1.66 1.22
1.51 1.58 1.81 2.15 1.50 1.36 1.09 1.16 1.68 2.73 3.74 0.39 0.09 0.05 0.05 0.16 0.16 0.15 0.31 0.86 0.93 0.48 0.34 0.27 0.06 0.34 0.40 0.19 0.28 0.47 0.29 0.31 0.37 0.75 0.74 0.57 1.14 0.31 0.22 0.28 0.19 0.37 0.65 1.13 1.63
1.87 2.40 2.27 2.26 2.22 1.31 1.17 2.02 2.93 4.48 3.29 0.36 0.19 0.13 0.21 0.22 0.08 0.34 0.76 1.31 1.09 1.02 0.73 0.24 0.09 0.20 0.27 0.12 0.18 0.36 0.86 0.73 0.94 1.32 2.29 0.81 0.66 0.27 0.34 0.37 0.22 0.47 0.59 0.65 1.43
2.46 2.68 2.95 2.37 2.05 1.71 2.41 3.90 5.21 3.98 0.92 0.51 0.30 0.27 0.33 0.46 0.40 0.35 1.35 1.86 1.67 1.92 1.50 0.68 0.21 0.04 0.20 0.34 0.57 0.99 1.59 2.66 2.67 2.81 2.12 0.46 0.43 0.44 0.27 0.23 0.47 0.69 0.75 0.81 1.30
2.36 2.53 2.08 1.86 1.75 2.56 3.96 5.47 5.72 1.29 0.58 0.41 0.32 0.43 0.39 0.51 0.57 0.40 0.70 1.23 1.42 1.27 1.45 0.90 0.55 0.12 0.19 0.27 0.55 1.02 1.55 2.02 1.55 1.16 0.62 0.33 0.59 0.30 0.15 0.19 0.48 0.67 0.80 0.80 0.79
2.43 2.19 2.20 1.72 1.67 2.94 5.06 5.98 2.60 0.99 0.55 0.43 0.35 0.63 0.66 0.88 1.18 0.87 0.66 0.84 1.22 1.76 1.94 1.51 0.39 0.09 0.06 0.05 0.23 0.67 1.26 1.05 0.96 0.50 0.53 0.32 0.21 0.18 0.07 0.07 0.17 0.37 0.69 0.88 0.81
2.84 2.79 2.60 1.98 2.49 3.72 5.29 3.59 0.88 0.33 0.55 0.63 0.92 0.67 0.78 0.80 1.33 1.78 1.49 0.89 0.88 1.57 1.94 1.76 1.37 0.22 0.24 0.30 0.36 0.42 0.52 1.06 1.72 1.74 0.89 0.22 0.16 0.19 0.16 0.17 0.13 0.30 0.62 0.96 0.80
3.65 3.92 2.34 2.38 3.73 5.04 4.91 1.61 0.35 0.22 0.66 1.23 0.86 0.82 0.61 1.27 1.82 2.02 2.34 1.11 0.87 0.86 1.59 2.08 1.95 0.82 0.52 0.60 0.47 0.54 1.10 0.97 1.41 1.14 0.99 0.51 0.26 0.43 0.47 0.46 0.37 0.48 0.73 1.23 1.21
4.21 3.97 2.21 2.92 5.01 4.47 2.07 0.76 0.42 0.40 0.69 0.97 0.92 0.76 0.69 0.84 1.84 1.75 1.50 1.57 1.06 0.89 1.27 1.42 2.23 1.42 0.57 0.41 0.33 0.32 0.75 1.03 1.42 1.26 0.80 0.76 0.42 0.39 0.44 0.47 0.44 0.62 0.70 1.23 1.45
4.95 3.15 3.03 3.49 4.20 2.50 1.07 0.59 0.80 0.60 0.77 1.00 0.80 0.74 0.59 0.70 1.46 0.95 0.99 0.92 1.09 1.19 1.55 1.61 2.22 2.01 1.54 1.44 0.69 0.66 0.37 0.62 0.77 0.92 0.83 0.83 0.40 0.21 0.31 0.36 0.39 0.74 0.67 1.17 1.37
5.84 4.20 4.00 4.50 2.75 1.43 1.31 1.09 0.86 0.54 0.65 0.68 0.67 0.61 0.74 0.57 0.76 0.89 0.60 0.54 0.54 1.08 1.32 1.52 1.59 1.38 1.13 1.53 1.44 1.13 0.81 0.52 0.76 0.85 0.73 0.54 0.25 0.18 0.18 0.27 0.31 0.53 0.83 1.23 1.40
6.08 3.83 2.48 3.02 2.14 1.38 1.94 1.59 0.64 0.75 0.78 0.79 0.71 0.55 0.99 1.22 0.75 0.67 0.64 0.67 0.62 0.88 1.31 1.86 1.54 0.85 0.25 0.23 0.54 0.61 0.75 0.68 0.79 0.53 0.68 0.39 0.31 0.24 0.33 0.37 0.48 0.67 0.85 1.04 1.16
5.31 2.74 2.20 1.53 0.96 1.64 2.24 1.56 0.64 0.95 1.11 0.82 0.85 0.48 0.68 0.96 1.00 1.02 1.11 1.06 1.11 1.15 1.76 1.91 1.64 0.70 0.43 0.19 0.31 0.36 0.38 0.59 0.65 0.36 0.24 0.24 0.28 0.21 0.25 0.28 0.48 0.73 0.88 0.98 1.00
3.60 2.38 3.27 3.01 1.73 2.00 1.75 1.14 0.99 1.26 1.20 0.62 0.61 0.91 0.69 0.54 0.50 0.79 1.07 1.10 1.18 1.40 1.65 1.78 1.58 0.93 0.83 0.39 0.83 0.98 0.71 0.52 0.52 0.49 0.31 0.34 0.27 0.12 0.16 0.24 0.70 0.85 0.96 1.03 1.02

GFSSW_prec_precacc_354.txt.gz
Total_Precipitation_Accumulation
0.13 0.15 0.18 0.18 0.18 0.21 0.23 0.23 0.23 0.22 0.21 0.19 0.20 0.19 0.20 0.24 0.16 0.09 0.06 0.07 0.19 0.20 0.08 0.01 0.02 0.04 0.24 0.34 0.65 1.10 1.00 0.52 0.36 0.14 0.05 0.09 0.12 0.09 0.07 0.07 0.09 0.13 0.08 0.25 0.49
0.11 0.14 0.18 0.17 0.19 0.21 0.22 0.20 0.19 0.19 0.20 0.23 0.27 0.29 0.34 0.33 0.09 0.06 0.10 0.14 0.10 0.14 0.02 0.02 0.02 0.06 0.18 0.27 0.66 1.14 0.68 0.15 0.11 0.27 0.21 0.23 0.25 0.20 0.18 0.15 0.15 0.14 0.19 0.52 0.68
0.13 0.15 0.15 0.18 0.21 0.20 0.19 0.20 0.20 0.19 0.19 0.24 0.31 0.43 0.53 0.24 0.05 0.07 0.11 0.07 0.14 0.07 0.02 0.01 0.04 0.16 0.17 0.26 0.42 0.56 0.39 0.09 0.05 0.13 0.44 0.50 0.43 0.31 0.36 0.27 0.21 0.22 0.44 0.62 0.91
0.19 0.19 0.17 0.19 0.24 0.22 0.21 0.19 0.20 0.22 0.25 0.26 0.37 0.52 0.41 0.21 0.07 0.03 0.12 0.07 0.06 0.03 0.04 0.04 0.11 0.23 0.20 0.20 0.21 0.39 0.10 0.15 0.10 0.13 0.31 0.57 0.68 0.42 0.42 0.32 0.20 0.29 0.59 0.88 1.11
0.21 0.23 0.27 0.29 0.27 0.24 0.19 0.18 0.19 0.24 0.27 0.29 0.42 0.57 0.42 0.19 0.05 0.00 0.00 0.02 0.03 0.05 0.07 0.09 0.14 0.20 0.29 0.17 0.23 0.29 0.13 0.24 0.24 0.28 0.33 0.46 0.55 0.74 0.52 0.36 0.29 0.32 0.47 0.93 1.21
0.29 0.34 0.34 0.35 0.35 0.30 0.24 0.26 0.29 0.30 0.27 0.29 0.50 0.57 0.47 0.18 0.00 0.00 0.00 0.00 0.01 0.05 0.15 0.20 0.18 0.21 0.31 0.23 0.32 0.19 0.15 0.18 0.26 0.43 0.47 0.63 0.50 0.77 0.66 0.56 0.31 0.30 0.32 0.81 1.11
0.29 0.33 0.43 0.40 0.32 0.33 0.41 0.41 0.36 0.28 0.29 0.38 0.54 0.53 0.45 0.08 0.00 0.00 0.01 0.04 0.04 0.09 0.10 0.22 0.33 0.45 0.38 0.33 0.20 0.19 0.32 0.33 0.23 0.35 0.52 0.82 0.76 0.62 0.55 0.94 0.58 0.19 0.25 0.65 1.12
0.32 0.37 0.40 0.38 0.46 0.47 0.39 0.33 0.41 0.43 0.43 0.44 0.40 0.58 0.37 0.00 0.00 0.00 0.00 0.03 0.08 0.13 0.16 0.25 0.53 0.48 0.42 0.35 0.20 0.31 0.63 0.54 0.27 0.35 0.66 1.29 1.05 0.22 0.46 1.12 0.85 0.19 0.24 0.48 0.68
0.45 0.41 0.38 0.39 0.41 0.46 0.46 0.46 0.42 0.39 0.47 0.47 0.48 0.61 0.22 0.00 0.00 0.00 0.00 0.00 0.05 0.16 0.22 0.33 0.60 0.69 0.56 0.59 0.62 0.54 0.42 0.17 0.17 0.25 0.70 1.13 0.89 0.38 0.42 1.06 1.12 0.48 0.24 0.44 0.67
0.47 0.47 0.45 0.44 0.51 0.68 0.72 0.61 0.47 0.46 0.34 0.48 0.82 1.01 0.18 0.00 0.00 0.00 0.00 0.01 0.03 0.18 0.47 0.48 0.67 0.93 0.88 1.01 0.79 0.25 0.20 0.13 0.19 0.17 0.41 0.63 0.61 0.42 0.50 0.98 1.39 0.90 0.44 0.86 1.35
0.51 0.56 0.57 0.63 0.66 0.88 1.05 0.93 0.97 0.85 0.75 0.39 0.35 0.29 0.06 0.03 0.05 0.02 0.01 0.03 0.11 0.26 0.27 0.45 0.72 0.66 0.48 0.47 0.26 0.16 0.21 0.21 0.08 0.18 0.39 0.46 0.39 0.61 0.58 1.07 1.36 1.17 0.77 1.09 1.42
0.67 0.70 0.88 0.99 0.93 0.94 1.00 0.86 0.78 1.24 0.78 0.18 0.13 0.11 0.06 0.05 0.14 0.11 0.16 0.24 0.24 0.16 0.24 0.66 0.53 0.05 0.10 0.35 0.48 0.34 0.30 0.14 0.14 0.06 0.28 0.36 0.38 0.67 0.74 1.26 1.48 1.58 1.36 1.15 1.12
0.97 1.02 1.17 1.27 1.34 1.08 0.75 0.61 0.59 0.89 1.32 0.27 0.07 0.05 0.01 0.10 0.15 0.16 0.31 0.44 0.26 0.15 0.19 0.32 0.30 0.08 0.20 0.47 0.87 0.61 0.45 0.22 0.15 0.08 0.23 0.33 0.66 0.84 0.78 1.11 0.80 1.03 1.49 1.71 1.41
1.14 1.21 1.41 1.50 1.50 0.89 0.86 0.84 0.82 1.51 2.56 0.49 0.04 0.06 0.01 0.09 0.19 0.11 0.32 0.62 0.64 0.18 0.22 0.33 0.20 0.34 0.33 0.34 0.60 0.88 0.32 0.35 0.26 0.49 0.73 0.39 1.04 0.45 0.46 0.66 0.24 0.46 0.91 1.66 1.22
1.51 1.58 1.81 2.15 1.50 1.36 1.09 1.16 1.68 2.73 3.74 0.39 0.09 0.05 0.05 0.16 0.17 0.18 0.31 0.88 0.96 0.49 0.37 0.35 0.11 0.40 0.55 0.42 0.31 0.55 0.33 0.38 0.50 0.79 0.78 0.58 1.15 0.31 0.23 0.28 0.19 0.37 0.65 1.13 1.63
1.87 2.40 2.27 2.26 2.22 1.31 1.17 2.02 2.93 4.49 3.29 0.36 0.19 0.13 0.21 0.22 0.08 0.35 0.77 1.35 1.10 1.02 0.73 0.26 0.13 0.24 0.44 0.30 0.25 0.39 0.88 0.78 1.06 1.39 2.32 0.82 0.66 0.27 0.34 0.37 0.22 0.47 0.59 0.65 1.43
2.46 2.68 2.95 2.37 2.05 1.71 2.41 3.90 5.22 3.98 0.92 0.51 0.30 0.27 0.33 0.46 0.40 0.36 1.40 2.01 1.77 2.03 1.56 0.70 0.23 0.07 0.25 0.39 0.60 1.01 1.60 2.73 2.81 2.86 2.13 0.47 0.43 0.46 0.28 0.23 0.47 0.69 0.75 0.81 1.30
2.36 2.53 2.08 1.86 1.75 2.56 3.96 5.47 5.72 1.29 0.58 0.41 0.32 0.43 0.40 0.51 0.57 0.40 0.72 1.25 1.48 1.39 1.58 0.97 0.57 0.12 0.19 0.30 0.57 1.04 1.56 2.04 1.58 1.17 0.62 0.33 0.59 0.30 0.15 0.19 0.48 0.67 0.80 0.80 0.79
2.43 2.19 2.20 1.72 1.67 2.94 5.06 5.98 2.60 0.99 0.55 0.44 0.35 0.64 0.66 0.89 1.18 0.87 0.70 0.85 1.23 1.81 2.01 1.70 0.44 0.09 0.06 0.05 0.24 0.69 1.29 1.06 0.96 0.53 0.55 0.33 0.21 0.18 0.07 0.07 0.17 0.37 0.69 0.88 0.81
2.84 2.79 2.60 1.98 2.49 3.72 5.29 3.59 0.88 0.33 0.55 0.64 0.94 0.67 0.79 0.80 1.33 1.80 1.50 0.92 0.88 1.59 2.01 1.79 1.39 0.24 0.26 0.31 0.36 0.43 0.53 1.07 1.72 1.81 0.92 0.25 0.17 0.19 0.16 0.17 0.13 0.30 0.62 0.96 0.80
3.65 3.92 2.34 2.38 3.73 5.04 4.91 1.61 0.35 0.22 0.66 1.24 0.86 0.83 0.61 1.27 1.83 2.06 2.35 1.12 0.88 0.87 1.62 2.10 1.97 0.83 0.54 0.66 0.51 0.55 1.10 0.97 1.42 1.14 1.01 0.52 0.27 0.43 0.47 0.46 0.37 0.48 0.73 1.23 1.21
4.21 3.97 2.21 2.92 5.01 4.47 2.07 0.76 0.42 0.40 0.69 0.98 0.92 0.77 0.69 0.84 1.85 1.77 1.50 1.57 1.07 0.92 1.34 1.44 2.24 1.43 0.58 0.42 0.33 0.37 0.76 1.04 1.47 1.28 0.80 0.78 0.44 0.39 0.44 0.47 0.44 0.62 0.70 1.23 1.45
4.95 3.15 3.03 3.49 4.20 2.50 1.07 0.59 0.80 0.60 0.77 1.00 0.80 0.74 0.59 0.70 1.47 0.95 0.99 0.93 1.09 1.19 1.59 1.64 2.22 2.02 1.55 1.44 0.69 0.69 0.38 0.62 0.78 0.93 0.84 0.84 0.41 0.21 0.31 0.36 0.39 0.74 0.67 1.17 1.37
5.84 4.20 4.00 4.50 2.75 1.43 1.31 1.09 0.86 0.54 0.65 0.68 0.67 0.61 0.74 0.58 0.76 0.89 0.60 0.54 0.54 1.08 1.32 1.52 1.60 1.39 1.17 1.55 1.44 1.13 0.81 0.52 0.76 0.86 0.75 0.54 0.25 0.18 0.18 0.27 0.31 0.53 0.83 1.23 1.40
6.08 3.83 2.48 3.03 2.14 1.38 1.94 1.59 0.64 0.75 0.78 0.79 0.71 0.55 1.00 1.23 0.75 0.67 0.64 0.67 0.62 0.88 1.31 1.86 1.55 0.85 0.25 0.23 0.54 0.61 0.75 0.68 0.79 0.53 0.69 0.40 0.31 0.24 0.33 0.37 0.48 0.67 0.85 1.04 1.16
5.31 2.74 2.20 1.53 0.96 1.64 2.24 1.56 0.64 0.95 1.11 0.82 0.85 0.48 0.68 0.97 1.01 1.03 1.13 1.07 1.12 1.15 1.76 1.91 1.65 0.70 0.43 0.19 0.31 0.36 0.38 0.59 0.65 0.36 0.24 0.24 0.28 0.21 0.25 0.28 0.48 0.73 0.88 0.98 1.00
3.60 2.38 3.27 3.01 1.73 2.00 1.75 1.14 0.99 1.26 1.20 0.62 0.61 0.92 0.69 0.55 0.51 0.79 1.09 1.12 1.19 1.40 1.65 1.78 1.58 0.94 0.86 0.39 0.83 0.98 0.71 0.52 0.52 0.49 0.31 0.34 0.27 0.12 0.16 0.24 0.70 0.85 0.96 1.03 1.02

GFSSW_prec_precacc_357.txt.gz
Total_Precipitation_Accumulation
0.13 0.15 0.18 0.18 0.18 0.21 0.23 0.23 0.23 0.22 0.21 0.19 0.20 0.19 0.20 0.24 0.16 0.09 0.06 0.07 0.19 0.20 0.08 0.01 0.02 0.04 0.24 0.34 0.66 1.10 1.00 0.52 0.36 0.14 0.05 0.09 0.12 0.09 0.07 0.07 0.09 0.13 0.08 0.25 0.49
0.11 0.14 0.18 0.17 0.19 0.21 0.22 0.20 0.19 0.19 0.20 0.23 0.27 0.29 0.34 0.33 0.09 0.06 0.10 0.14 0.10 0.14 0.02 0.02 0.02 0.06 0.18 0.27 0.66 1.14 0.68 0.15 0.11 0.27 0.21 0.23 0.25 0.20 0.18 0.15 0.15 0.14 0.19 0.52 0.68
0.13 0.15 0.15 0.18 0.21 0.20 0.19 0.20 0.20 0.19 0.19 0.24 0.31 0.43 0.53 0.24 0.05 0.07 0.11 0.07 0.14 0.07 0.02 0.01 0.04 0.16 0.17 0.26 0.42 0.56 0.39 0.09 0.05 0.13 0.44 0.50 0.43 0.31 0.36 0.27 0.21 0.22 0.45 0.62 0.91
0.19 0.19 0.17 0.19 0.24 0.22 0.21 0.19 0.20 0.22 0.25 0.26 0.37 0.52 0.41 0.21 0.07 0.03 0.12 0.07 0.06 0.03 0.04 0.04 0.11 0.23 0.20 0.20 0.21 0.40 0.10 0.15 0.10 0.13 0.31 0.57 0.68 0.42 0.42 0.32 0.20 0.29 0.59 0.89 1.11
0.21 0.23 0.27 0.29 0.27 0.24 0.19 0.18 0.19 0.24 0.27 0.29 0.42 0.57 0.42 0.19 0.05 0.00 0.00 0.02 0.03 0.05 0.07 0.09 0.14 0.20 0.30 0.17 0.24 0.31 0.13 0.24 0.24 0.28 0.33 0.46 0.55 0.74 0.52 0.36 0.29 0.32 0.47 0.93 1.21
0.29 0.34 0.34 0.35 0.35 0.30 0.24 0.26 0.29 0.30 0.27 0.29 0.50 0.57 0.47 0.18 0.00 0.00 0.00 0.00 0.01 0.05 0.15 0.20 0.18 0.22 0.32 0.25 0.33 0.21 0.17 0.19 0.26 0.43 0.47 0.63 0.50 0.77 0.66 0.56 0.31 0.30 0.32 0.81 1.11
0.29 0.33 0.43 0.40 0.32 0.33 0.41 0.41 0.36 0.28 0.29 0.38 0.54 0.53 0.45 0.08 0.00 0.00 0.01 0.04 0.04 0.09 0.10 0.22 0.33 0.45 0.40 0.35 0.22 0.22 0.35 0.36 0.24 0.35 0.52 0.82 0.76 0.62 0.55 0.94 0.58 0.19 0.25 0.65 1.14
0.32 0.37 0.40 0.38 0.46 0.47 0.39 0.33 0.41 0.43 0.43 0.44 0.40 0.58 0.37 0.00 0.00 0.00 0.00 0.03 0.08 0.13 0.16 0.25 0.53 0.48 0.43 0.38 0.23 0.35 0.71 0.59 0.28 0.35 0.66 1.29 1.05 0.22 0.46 1.12 0.85 0.19 0.24 0.48 0.69
0.45 0.41 0.38 0.39 0.41 0.46 0.46 0.46 0.42 0.39 0.47 0.47 0.48 0.61 0.22 0.00 0.00 0.00 0.00 0.00 0.05 0.16 0.22 0.33 0.61 0.70 0.57 0.62 0.65 0.57 0.44 0.21 0.18 0.26 0.70 1.13 0.89 0.38 0.42 1.06 1.12 0.48 0.24 0.45 0.70
0.47 0.47 0.45 0.44 0.51 0.68 0.72 0.61 0.47 0.46 0.34 0.48 0.82 1.01 0.18 0.00 0.00 0.00 0.00 0.01 0.03 0.18 0.47 0.48 0.69 0.95 0.89 1.04 0.88 0.33 0.21 0.13 0.20 0.18 0.41 0.63 0.61 0.42 0.50 0.98 1.39 0.91 0.45 0.86 1.37
0.51 0.56 0.57 0.63 0.66 0.88 1.05 0.93 0.97 0.85 0.75 0.39 0.35 0.29 0.06 0.03 0.05 0.02 0.01 0.04 0.12 0.30 0.29 0.46 0.76 0.68 0.48 0.47 0.29 0.24 0.31 0.22 0.09 0.18 0.39 0.46 0.39 0.61 0.58 1.07 1.36 1.19 0.79 1.09 1.43
0.67 0.70 0.88 0.99 0.93 0.94 1.00 0.86 0.78 1.24 0.78 0.18 0.13 0.11 0.06 0.05 0.14 0.11 0.16 0.25 0.26 0.17 0.27 0.68 0.59 0.07 0.11 0.35 0.49 0.40 0.35 0.19 0.15 0.07 0.29 0.36 0.38 0.67 0.74 1.26 1.49 1.60 1.37 1.16 1.12
0.97 1.02 1.17 1.27 1.34 1.08 0.75 0.61 0.59 0.89 1.32 0.27 0.07 0.05 0.01 0.10 0.15 0.17 0.32 0.44 0.26 0.15 0.19 0.33 0.30 0.09 0.20 0.48 0.87 0.62 0.47 0.25 0.19 0.14 0.26 0.35 0.67 0.84 0.78 1.11 0.81 1.06 1.52 1.72 1.41
1.14 1.21 1.41 1.50 1.50 0.89 0.86 0.84 0.82 1.51 2.56 0.49 0.04 0.06 0.01 0.09 0.19 0.12 0.33 0.63 0.65 0.19 0.23 0.38 0.29 0.34 0.35 0.34 0.62 0.95 0.33 0.40 0.33 0.54 0.81 0.44 1.05 0.45 0.46 0.66 0.24 0.46 0.92 1.66 1.22
1.51 1.58 1.81 2.15 1.50 1.36 1.09 1.16 1.68 2.73 3.74 0.39 0.09 0.05 0.05 0.16 0.17 0.19 0.31 0.89 0.98 0.50 0.38 0.40 0.18 0.41 0.55 0.42 0.32 0.58 0.38 0.41 0.66 0.91 0.83 0.64 1.15 0.32 0.25 0.28 0.19 0.37 0.66 1.13 1.63
1.87 2.40 2.27 2.26 2.22 1.31 1.17 2.02 2.93 4.49 3.29 0.36 0.19 0.13 0.21 0.22 0.08 0.35 0.78 1.36 1.10 1.03 0.73 0.27 0.15 0.27 0.62 0.35 0.25 0.41 0.92 0.85 1.17 1.79 2.38 0.82 0.66 0.27 0.35 0.37 0.23 0.47 0.59 0.66 1.43
2.46 2.68 2.95 2.37 2.05 1.71 2.41 3.90 5.22 3.98 0.92 0.51 0.30 0.27 0.33 0.46 0.40 0.36 1.40 2.02 1.83 2.10 1.64 0.70 0.23 0.08 0.38 0.51 0.69 1.10 1.61 2.78 2.92 3.15 2.22 0.47 0.43 0.46 0.28 0.23 0.47 0.69 0.75 0.81 1.30
2.36 2.53 2.08 1.86 1.75 2.56 3.96 5.47 5.72 1.29 0.58 0.41 0.32 0.43 0.40 0.51 0.57 0.40 0.72 1.25 1.48 1.43 1.68 1.05 0.61 0.12 0.19 0.31 0.61 1.07 1.57 2.04 1.61 1.22 0.62 0.33 0.59 0.30 0.15 0.19 0.48 0.67 0.80 0.80 0.79
2.43 2.19 2.20 1.72 1.67 2.94 5.06 5.98 2.60 0.99 0.55 0.44 0.35 0.64 0.66 0.89 1.18 0.87 0.71 0.86 1.24 1.85 2.08 1.78 0.47 0.09 0.06 0.05 0.24 0.70 1.29 1.06 0.96 0.53 0.55 0.33 0.21 0.18 0.07 0.07 0.17 0.37 0.69 0.88 0.81
2.84 2.79 2.60 1.98 2.49 3.72 5.29 3.59 0.88 0.33 0.55 0.64 0.94 0.67 0.79 0.80 1.33 1.80 1.51 0.92 0.88 1.60 2.07 1.83 1.45 0.25 0.26 0.31 0.36 0.43 0.53 1.07 1.72 1.83 0.95 0.27 0.19 0.19 0.16 0.17 0.13 0.30 0.62 0.96 0.80
3.65 3.92 2.34 2.38 3.73 5.04 4.91 1.61 0.35 0.22 0.66 1.24 0.86 0.83 0.62 1.27 1.83 2.07 2.35 1.12 0.88 0.87 1.62 2.12 1.99 0.84 0.58 0.70 0.51 0.55 1.10 0.97 1.42 1.15 1.06 0.54 0.34 0.43 0.47 0.46 0.37 0.48 0.73 1.23 1.21
4.21 3.97 2.21 2.92 5.01 4.47 2.07 0.76 0.42 0.40 0.69 0.98 0.93 0.77 0.69 0.84 1.85 1.77 1.50 1.57 1.07 0.92 1.36 1.45 2.25 1.44 0.59 0.42 0.33 0.37 0.76 1.04 1.47 1.29 0.80 0.79 0.45 0.39 0.44 0.47 0.44 0.62 0.70 1.23 1.45
4.95 3.15 3.03 3.49 4.20 2.50 1.07 0.59 0.80 0.60 0.77 1.00 0.80 0.74 0.59 0.70 1.47 0.95 0.99 0.93 1.09 1.19 1.60 1.65 2.23 2.02 1.55 1.44 0.69 0.77 0.39 0.62 0.78 0.93 0.84 0.84 0.41 0.21 0.31 0.36 0.39 0.74 0.67 1.17 1.37
5.84 4.20 4.00 4.50 2.75 1.43 1.31 1.09 0.86 0.54 0.65 0.68 0.67 0.61 0.74 0.58 0.76 0.89 0.60 0.54 0.54 1.08 1.32 1.53 1.61 1.39 1.22 1.57 1.44 1.13 0.81 0.52 0.76 0.86 0.75 0.54 0.25 0.18 0.18 0.27 0.31 0.53 0.83 1.23 1.40
6.08 3.83 2.48 3.03 2.14 1.38 1.94 1.59 0.64 0.75 0.78 0.79 0.71 0.55 1.00 1.23 0.75 0.67 0.64 0.67 0.62 0.88 1.31 1.86 1.55 0.85 0.25 0.23 0.54 0.61 0.75 0.68 0.79 0.53 0.69 0.40 0.31 0.24 0.33 0.37 0.48 0.67 0.85 1.04 1.16
5.31 2.74 2.20 1.53 0.96 1.64 2.24 1.56 0.64 0.95 1.11 0.82 0.85 0.48 0.69 0.98 1.04 1.04 1.15 1.08 1.12 1.15 1.76 1.91 1.65 0.70 0.43 0.19 0.31 0.36 0.38 0.59 0.65 0.36 0.24 0.24 0.28 0.21 0.25 0.28 0.48 0.73 0.88 0.98 1.00
3.60 2.38 3.27 3.01 1.73 2.00 1.75 1.14 0.99 1.26 1.20 0.62 0.61 0.92 0.69 0.55 0.51 0.80 1.09 1.13 1.20 1.41 1.65 1.78 1.58 0.94 0.86 0.39 0.83 0.98 0.71 0.52 0.52 0.49 0.31 0.34 0.27 0.12 0.16 0.24 0.70 0.85 0.96 1.03 1.02

GFSSW_prec_precacc_363.txt.gz
Total_Precipitation_Accumulation
0.13 0.15 0.18 0.18 0.18 0.21 0.23 0.23 0.23 0.22 0.21 0.19 0.20 0.19 0.20 0.24 0.16 0.09 0.06 0.07 0.19 0.20 0.08 0.01 0.02 0.04 0.24 0.35 0.66 1.10 1.00 0.52 0.36 0.14 0.05 0.09 0.12 0.09 0.07 0.07 0.09 0.13 0.08 0.25 0.50
0.11 0.14 0.18 0.17 0.19 0.21 0.22 0.20 0.19 0.19 0.20 0.23 0.27 0.29 0.34 0.33 0.09 0.06 0.10 0.14 0.10 0.14 0.02 0.02 0.02 0.06 0.18 0.28 0.68 1.15 0.68 0.15 0.11 0.27 0.21 0.23 0.25 0.20 0.18 0.15 0.15 0.14 0.19 0.52 0.70
0.13 0.15 0.15 0.18 0.21 0.20 0.19 0.20 0.20 0.19 0.19 0.24 0.31 0.43 0.53 0.24 0.05 0.07 0.11 0.07 0.14 0.07 0.02 0.01 0.04 0.16 0.17 0.26 0.43 0.59 0.39 0.09 0.05 0.13 0.44 0.50 0.43 0.31 0.36 0.27 0.21 0.22 0.45 0.63 0.93
0.19 0.19 0.17 0.19 0.24 0.22 0.21 0.19 0.20 0.22 0.25 0.26 0.37 0.52 0.41 0.21 0.07 0.03 0.12 0.07 0.06 0.03 0.04 0.04 0.11 0.23 0.20 0.20 0.21 0.41 0.10 0.16 0.10 0.13 0.31 0.57 0.68 0.42 0.42 0.32 0.20 0.29 0.59 0.90 1.12
0.21 0.23 0.27 0.29 0.27 0.24 0.19 0.18 0.19 0.24 0.27 0.29 0.42 0.57 0.42 0.19 0.05 0.00 0.00 0.02 0.03 0.05 0.07 0.09 0.14 0.20 0.30 0.17 0.24 0.31 0.13 0.24 0.24 0.28 0.33 0.46 0.55 0.74 0.52 0.36 0.29 0.32 0.47 0.94 1.22
0.29 0.34 0.34 0.35 0.35 0.30 0.24 0.26 0.29 0.30 0.27 0.29 0.50 0.57 0.47 0.18 0.00 0.00 0.00 0.00 0.01 0.05 0.15 0.20 0.18 0.22 0.32 0.25 0.34 0.21 0.18 0.20 0.27 0.43 0.47 0.63 0.50 0.77 0.66 0.56 0.31 0.30 0.33 0.83 1.13
0.29 0.33 0.43 0.40 0.32 0.33 0.41 0.41 0.36 0.28 0.29 0.38 0.54 0.53 0.45 0.08 0.00 0.00 0.01 0.04 0.04 0.09 0.10 0.22 0.33 0.45 0.40 0.35 0.22 0.23 0.37 0.36 0.26 0.36 0.52 0.84 0.76 0.62 0.55 0.95 0.58 0.20 0.26 0.70 1.16
0.32 0.37 0.40 0.38 0.46 0.47 0.39 0.33 0.41 0.43 0.43 0.44 0.40 0.58 0.37 0.00 0.00 0.00 0.00 0.03 0.08 0.13 0.16 0.25 0.54 0.48 0.45 0.42 0.24 0.36 0.74 0.60 0.28 0.37 0.66 1.36 1.06 0.22 0.47 1.15 0.88 0.21 0.26 0.51 0.72
0.45 0.41 0.38 0.39 0.41 0.46 0.46 0.46 0.42 0.39 0.47 0.47 0.48 0.61 0.22 0.00 0.00 0.00 0.00 0.00 0.05 0.16 0.23 0.35 0.62 0.72 0.61 0.69 0.75 0.63 0.47 0.23 0.18 0.28 0.73 1.20 0.91 0.38 0.43 1.09 1.18 0.54 0.27 0.48 0.73
0.47 0.47 0.45 0.44 0.51 0.68 0.72 0.61 0.47 0.46 0.34 0.48 0.82 1.01 0.18 0.00 0.00 0.00 0.00 0.01 0.03 0.18 0.48 0.50 0.70 0.96 0.90 1.10 0.95 0.34 0.24 0.16 0.21 0.19 0.48 0.68 0.63 0.42 0.50 0.99 1.42 1.04 0.52 0.90 1.40
0.51 0.56 0.57 0.63 0.66 0.88 1.05 0.93 0.97 0.85 0.75 0.39 0.35 0.29 0.06 0.03 0.05 0.02 0.01 0.04 0.12 0.30 0.29 0.46 0.76 0.68 0.48 0.48 0.31 0.29 0.38 0.32 0.16 0.22 0.47 0.51 0.40 0.61 0.58 1.09 1.40 1.27 0.89 1.11 1.44
0.67 0.70 0.88 0.99 0.93 0.94 1.00 0.86 0.78 1.24 0.78 0.18 0.13 0.11 0.06 0.05 0.14 0.11 0.16 0.25 0.26 0.17 0.27 0.69 0.60 0.07 0.11 0.36 0.51 0.43 0.41 0.29 0.22 0.14 0.37 0.39 0.40 0.67 0.74 1.27 1.50 1.62 1.41 1.19 1.13
0.97 1.02 1.17 1.27 1.34 1.08 0.75 0.61 0.59 0.89 1.32 0.27 0.07 0.05 0.01 0.10 0.15 0.17 0.32 0.44 0.27 0.15 0.19 0.34 0.33 0.11 0.22 0.49 0.88 0.64 0.49 0.29 0.28 0.32 0.33 0.39 0.68 0.88 0.80 1.13 0.87 1.20 1.65 1.82 1.47
1.14 1.21 1.41 1.50 1.50 0.89 0.86 0.84 0.82 1.51 2.56 0.49 0.04 0.06 0.01 0.09 0.19 0.12 0.33 0.63 0.65 0.20 0.23 0.40 0.34 0.36 0.36 0.36 0.63 0.96 0.34 0.41 0.45 0.70 0.89 0.47 1.08 0.46 0.47 0.67 0.28 0.50 1.00 1.73 1.28
1.51 1.58 1.81 2.15 1.50 1.36 1.09 1.16 1.68 2.73 3.74 0.39 0.09 0.05 0.05 0.16 0.17 0.19 0.31 0.89 0.98 0.50 0.38 0.40 0.18 0.43 0.71 0.58 0.33 0.59 0.38 0.41 0.67 1.03 1.00 0.76 1.19 0.33 0.26 0.29 0.21 0.41 0.73 1.22 1.68
1.87 2.40 2.27 2.26 2.22 1.31 1.17 2.02 2.93 4.49 3.29 0.36 0.19 0.13 0.21 0.22 0.08 0.35 0.78 1.36 1.10 1.03 0.73 0.27 0.16 0.38 1.19 0.55 0.28 0.46 0.95 0.89 1.20 1.86 2.50 0.98 0.69 0.28 0.35 0.38 0.24 0.50 0.64 0.78 1.53
2.46 2.68 2.95 2.37 2.05 1.71 2.41 3.90 5.22 3.98 0.92 0.51 0.30 0.27 0.33 0.46 0.40 0.36 1.40 2.02 1.84 2.12 1.64 0.71 0.23 0.10 0.49 0.54 0.72 1.14 1.63 2.89 2.95 3.22 2.39 0.62 0.48 0.46 0.28 0.23 0.49 0.73 0.81 0.90 1.43
2.36 2.53 2.08 1.86 1.75 2.56 3.96 5.47 5.72 1.29 0.58 0.41 0.32 0.43 0.40 0.51 0.57 0.40 0.72 1.25 1.48 1.44 1.70 1.07 0.62 0.12 0.20 0.40 0.72 1.14 1.58 2.08 1.65 1.28 0.79 0.50 0.67 0.30 0.15 0.20 0.49 0.70 0.86 0.90 0.93
2.43 2.19 2.20 1.72 1.67 2.94 5.06 5.98 2.60 0.99 0.55 0.44 0.35 0.64 0.66 0.89 1.18 0.87 0.71 0.86 1.24 1.87 2.14 1.82 0.48 0.09 0.06 0.05 0.29 0.70 1.29 1.06 0.98 0.61 0.69 0.53 0.25 0.18 0.07 0.07 0.18 0.40 0.73 0.93 0.87
2.84 2.79 2.60 1.98 2.49 3.72 5.29 3.59 0.88 0.33 0.55 0.64 0.94 0.67 0.79 0.80 1.33 1.80 1.51 0.92 0.88 1.60 2.13 1.90 1.50 0.25 0.26 0.31 0.36 0.43 0.53 1.07 1.72 1.86 1.01 0.36 0.20 0.19 0.16 0.17 0.14 0.31 0.65 0.98 0.82
3.65 3.92 2.34 2.38 3.73 5.04 4.91 1.61 0.35 0.22 0.66 1.24 0.86 0.83 0.62 1.27 1.83 2.07 2.36 1.12 0.88 0.87 1.62 2.14 2.03 0.84 0.59 0.70 0.51 0.55 1.10 0.97 1.42 1.15 1.09 0.57 0.36 0.43 0.47 0.46 0.37 0.48 0.73 1.26 1.26
4.21 3.97 2.21 2.92 5.01 4.47 2.07 0.76 0.42 0.40 0.69 0.98 0.93 0.78 0.70 0.84 1.85 1.78 1.50 1.57 1.07 0.92 1.36 1.47 2.28 1.44 0.59 0.42 0.33 0.37 0.76 1.04 1.47 1.29 0.80 0.79 0.45 0.39 0.44 0.47 0.44 0.62 0.70 1.23 1.47
4.95 3.15 3.03 3.49 4.20 2.50 1.07 0.59 0.80 0.60 0.77 1.00 0.80 0.74 0.60 0.70 1.47 0.95 0.99 0.93 1.09 1.19 1.60 1.67 2.25 2.03 1.55 1.44 0.69 0.86 0.41 0.62 0.78 0.93 0.84 0.84 0.41 0.21 0.31 0.36 0.39 0.74 0.67 1.17 1.37
5.84 4.20 4.00 4.50 2.75 1.43 1.31 1.09 0.86 0.54 0.65 0.68 0.67 0.61 0.74 0.58 0.76 0.89 0.60 0.54 0.54 1.08 1.32 1.54 1.63 1.41 1.25 1.59 1.46 1.18 0.83 0.52 0.76 0.86 0.75 0.54 0.25 0.18 0.18 0.27 0.31 0.53 0.83 1.23 1.40
6.08 3.83 2.48 3.03 2.14 1.38 1.94 1.59 0.64 0.75 0.78 0.79 0.71 0.55 1.00 1.23 0.75 0.67 0.64 0.67 0.62 0.88 1.31 1.86 1.56 0.85 0.25 0.23 0.54 0.62 0.76 0.68 0.79 0.53 0.69 0.40 0.31 0.24 0.33 0.37 0.48 0.67 0.85 1.04 1.16
5.32 2.74 2.20 1.53 0.96 1.64 2.24 1.56 0.64 0.95 1.11 0.82 0.85 0.48 0.69 0.99 1.05 1.06 1.16 1.09 1.12 1.15 1.76 1.91 1.66 0.70 0.43 0.19 0.31 0.36 0.38 0.59 0.65 0.36 0.24 0.24 0.28 0.21 0.25 0.28 0.48 0.73 0.88 0.98 1.00
3.62 2.38 3.27 3.01 1.73 2.00 1.75 1.14 0.99 1.26 1.20 0.62 0.61 0.92 0.69 0.55 0.51 0.80 1.10 1.14 1.21 1.44 1.66 1.78 1.58 0.94 0.86 0.39 0.83 0.98 0.71 0.53 0.52 0.49 0.31 0.34 0.27 0.12 0.16 0.24 0.70 0.85 0.96 1.03 1.02

GFSSW_prec_precacc_366.txt.gz
Total_Precipitation_Accumulation
0.13 0.15 0.18 0.18 0.18 0.21 0.23 0.23 0.23 0.22 0.21 0.19 0.20 0.19 0.20 0.24 0.16 0.09 0.06 0.07 0.19 0.20 0.08 0.01 0.02 0.04 0.24 0.35 0.66 1.11 1.00 0.52 0.36 0.14 0.05 0.09 0.12 0.09 0.07 0.07 0.09 0.13 0.08 0.25 0.51
0.11 0.14 0.18 0.17 0.19 0.21 0.22 0.20 0.19 0.19 0.20 0.23 0.27 0.29 0.34 0.33 0.09 0.06 0.10 0.14 0.10 0.14 0.02 0.02 0.02 0.06 0.18 0.28 0.68 1.15 0.68 0.15 0.11 0.27 0.21 0.23 0.25 0.20 0.18 0.15 0.15 0.14 0.19 0.53 0.70
0.13 0.15 0.15 0.18 0.21 0.20 0.19 0.20 0.20 0.19 0.19 0.24 0.31 0.43 0.53 0.24 0.05 0.07 0.11 0.07 0.14 0.07 0.02 0.01 0.04 0.16 0.17 0.26 0.43 0.59 0.40 0.09 0.05 0.13 0.44 0.50 0.43 0.31 0.36 0.27 0.21 0.22 0.45 0.64 0.94
0.19 0.19 0.17 0.19 0.24 0.22 0.21 0.19 0.20 0.22 0.25 0.26 0.37 0.52 0.41 0.21 0.07 0.03 0.12 0.07 0.06 0.03 0.04 0.04 0.11 0.23 0.20 0.20 0.21 0.41 0.10 0.16 0.11 0.13 0.31 0.57 0.68 0.42 0.42 0.32 0.20 0.29 0.59 0.90 1.13
0.21 0.23 0.27 0.29 0.27 0.24 0.19 0.18 0.19 0.24 0.27 0.29 0.42 0.57 0.42 0.19 0.05 0.00 0.00 0.02 0.03 0.05 0.07 0.09 0.14 0.20 0.30 0.17 0.24 0.31 0.13 0.24 0.24 0.28 0.34 0.47 0.55 0.74 0.52 0.36 0.29 0.32 0.47 0.96 1.24
0.29 0.34 0.34 0.35 0.35 0.30 0.24 0.26 0.29 0.30 0.27 0.29 0.50 0.57 0.47 0.18 0.00 0.00 0.00 0.00 0.01 0.05 0.15 0.20 0.18 0.22 0.32 0.25 0.34 0.21 0.18 0.20 0.27 0.43 0.47 0.63 0.50 0.77 0.66 0.56 0.31 0.30 0.34 0.85 1.16
0.29 0.33 0.43 0.40 0.32 0.33 0.41 0.41 0.36 0.28 0.29 0.38 0.54 0.53 0.45 0.08 0.00 0.00 0.01 0.04 0.04 0.09 0.10 0.22 0.33 0.45 0.40 0.35 0.22 0.23 0.37 0.36 0.26 0.36 0.52 0.84 0.78 0.62 0.55 0.95 0.59 0.20 0.29 0.74 1.21
0.32 0.37 0.40 0.38 0.46 0.47 0.39 0.33 0.41 0.43 0.43 0.44 0.40 0.58 0.37 0.00 0.00 0.00 0.00 0.03 0.08 0.13 0.16 0.25 0.54 0.48 0.45 0.42 0.24 0.37 0.75 0.61 0.28 0.37 0.66 1.38 1.07 0.22 0.47 1.15 0.88 0.22 0.32 0.58 0.75
0.45 0.41 0.38 0.39 0.41 0.46 0.46 0.46 0.42 0.39 0.47 0.47 0.48 0.61 0.22 0.00 0.00 0.00 0.00 0.00 0.05 0.16 0.23 0.35 0.62 0.72 0.61 0.69 0.77 0.64 0.52 0.24 0.18 0.28 0.73 1.22 0.91 0.38 0.43 1.10 1.20 0.56 0.34 0.56 0.79
0.47 0.47 0.45 0.44 0.51 0.68 0.72 0.61 0.47 0.46 0.34 0.48 0.82 1.01 0.18 0.00 0.00 0.00 0.00 0.01 0.03 0.18 0.48 0.50 0.70 0.96 0.90 1.11 0.96 0.34 0.25 0.16 0.21 0.19 0.50 0.70 0.63 0.42 0.50 1.00 1.43 1.09 0.58 0.96 1.46
0.51 0.56 0.57 0.63 0.66 0.88 1.05 0.93 0.97 0.85 0.75 0.39 0.35 0.29 0.06 0.03 0.05 0.02 0.01 0.04 0.12 0.30 0.29 0.46 0.77 0.68 0.48 0.48 0.31 0.30 0.40 0.34 0.16 0.22 0.48 0.52 0.40 0.61 0.59 1.10 1.41 1.31 1.01 1.16 1.50
0.67 0.70 0.88 0.99 0.93 0.94 1.00 0.86 0.78 1.24 0.78 0.18 0.13 0.11 0.06 0.05 0.14 0.11 0.16 0.25 0.26 0.17 0.27 0.69 0.60 0.07 0.12 0.36 0.52 0.45 0.44 0.30 0.23 0.16 0.43 0.41 0.40 0.69 0.76 1.29 1.52 1.64 1.51 1.26 1.16
0.97 1.02 1.17 1.27 1.34 1.08 0.75 0.61 0.59 0.89 1.32 0.27 0.07 0.05 0.01 0.10 0.15 0.17 0.32 0.44 0.27 0.15 0.19 0.34 0.33 0.11 0.23 0.50 0.92 0.65 0.50 0.30 0.32 0.42 0.37 0.45 0.72 0.94 0.82 1.14 0.90 1.27 1.74 1.91 1.53
1.14 1.21 1.41 1.50 1.50 0.89 0.86 0.84 0.82 1.51 2.56 0.49 0.04 0.06 0.01 0.09 0.19 0.12 0.33 0.63 0.65 0.20 0.23 0.40 0.34 0.36 0.37 0.39 0.67 0.97 0.34 0.41 0.47 0.85 1.05 0.69 1.13 0.48 0.49 0.67 0.30 0.55 1.06 1.81 1.33
1.51 1.58 1.81 2.15 1.50 1.36 1.09 1.16 1.68 2.73 3.74 0.39 0.09 0.05 0.05 0.16 0.17 0.19 0.31 0.89 0.98 0.50 0.38 0.40 0.18 0.43 0.73 0.68 0.34 0.59 0.38 0.41 0.70 1.12 1.09 0.81 1.21 0.34 0.31 0.30 0.22 0.44 0.78 1.29 1.71
1.87 2.40 2.27 2.26 2.22 1.31 1.17 2.02 2.93 4.49 3.29 0.36 0.19 0.13 0.21 0.22 0.08 0.35 0.78 1.36 1.10 1.03 0.73 0.27 0.16 0.38 1.22 0.55 0.28 0.47 0.96 0.92 1.21 1.88 2.53 1.04 0.75 0.31 0.43 0.39 0.24 0.52 0.68 0.84 1.57
2.46 2.68 2.95 2.37 2.05 1.71 2.41 3.90 5.22 3.98 0.92 0.51 0.30 0.27 0.33 0.46 0.40 0.36 1.40 2.02 1.85 2.12 1.64 0.71 0.23 0.10 0.52 0.54 0.72 1.19 1.66 2.91 2.95 3.23 2.41 0.62 0.49 0.48 0.29 0.23 0.49 0.75 0.85 0.93 1.46
2.36 2.53 2.08 1.86 1.75 2.56 3.96 5.47 5.72 1.29 0.58 0.41 0.32 0.43 0.40 0.51 0.57 0.40 0.72 1.25 1.48 1.45 1.70 1.07 0.62 0.12 0.20 0.49 0.78 1.14 1.61 2.10 1.66 1.29 0.80 0.51 0.71 0.31 0.16 0.20 0.50 0.71 0.89 0.94 1.00
2.43 2.19 2.20 1.72 1.67 2.94 5.06 5.98 2.60 0.99 0.55 0.44 0.35 0.64 0.66 0.89 1.18 0.87 0.71 0.86 1.24 1.87 2.15 1.83 0.49 0.09 0.06 0.06 0.31 0.72 1.30 1.07 1.02 0.62 0.69 0.57 0.33 0.19 0.08 0.08 0.21 0.42 0.76 0.97 0.97
2.84 2.79 2.60 1.98 2.49 3.72 5.29 3.59 0.88 0.33 0.55 0.64 0.94 0.67 0.79 0.80 1.33 1.80 1.51 0.92 0.88 1.60 2.14 1.92 1.52 0.25 0.26 0.31 0.36 0.44 0.53 1.07 1.73 1.88 1.03 0.42 0.27 0.20 0.16 0.18 0.15 0.34 0.67 1.00 0.86
3.65 3.92 2.34 2.38 3.73 5.04 4.91 1.61 0.35 0.22 0.66 1.24 0.86 0.83 0.62 1.27 1.83 2.08 2.36 1.12 0.88 0.87 1.62 2.14 2.04 0.84 0.59 0.70 0.52 0.56 1.11 0.98 1.42 1.17 1.11 0.61 0.38 0.43 0.47 0.46 0.38 0.50 0.76 1.29 1.33
4.21 3.97 2.21 2.92 5.01 4.47 2.07 0.76 0.42 0.40 0.69 0.98 0.93 0.78 0.70 0.84 1.85 1.78 1.50 1.57 1.07 0.92 1.36 1.47 2.30 1.45 0.59 0.42 0.34 0.39 0.77 1.05 1.48 1.29 0.81 0.79 0.45 0.39 0.44 0.47 0.45 0.62 0.72 1.25 1.54
4.95 3.15 3.03 3.49 4.20 2.50 1.07 0.59 0.80 0.60 0.77 1.00 0.80 0.74 0.60 0.70 1.47 0.95 0.99 0.93 1.09 1.19 1.61 1.67 2.26 2.03 1.55 1.44 0.69 0.87 0.41 0.62 0.78 0.93 0.84 0.84 0.41 0.21 0.31 0.36 0.39 0.74 0.68 1.18 1.38
5.85 4.20 4.00 4.50 2.75 1.43 1.31 1.09 0.86 0.54 0.65 0.68 0.67 0.61 0.74 0.58 0.76 0.89 0.60 0.54 0.54 1.08 1.32 1.54 1.63 1.42 1.26 1.61 1.48 1.20 0.83 0.53 0.76 0.86 0.75 0.54 0.25 0.18 0.18 0.27 0.31 0.53 0.83 1.23 1.41
6.09 3.84 2.48 3.03 2.14 1.38 1.94 1.59 0.64 0.75 0.78 0.79 0.71 0.55 1.00 1.24 0.75 0.67 0.64 0.67 0.62 0.88 1.31 1.86 1.56 0.86 0.26 0.23 0.54 0.62 0.77 0.68 0.79 0.53 0.69 0.40 0.31 0.24 0.33 0.37 0.48 0.68 0.85 1.04 1.17
5.34 2.76 2.21 1.53 0.96 1.64 2.24 1.56 0.64 0.95 1.11 0.82 0.85 0.48 0.69 0.99 1.05 1.06 1.17 1.10 1.13 1.15 1.76 1.91 1.66 0.71 0.43 0.19 0.31 0.36 0.39 0.59 0.65 0.36 0.24 0.24 0.28 0.21 0.25 0.28 0.48 0.73 0.88 0.98 1.00
3.64 2.41 3.27 3.01 1.73 2.00 1.75 1.14 0.99 1.26 1.20 0.62 0.61 0.92 0.69 0.55 0.51 0.80 1.10 1.14 1.22 1.45 1.67 1.78 1.59 0.94 0.86 0.39 0.83 0.98 0.71 0.53 0.53 0.49 0.31 0.34 0.27 0.12 0.16 0.24 0.70 0.85 0.96 1.03 1.02

GFSSW_prec_precacc_372.txt.gz
Total_Precipitation_Accumulation
0.13 0.15 0.18 0.18 0.18 0.21 0.23 0.23 0.23 0.22 0.21 0.19 0.20 0.19 0.20 0.24 0.16 0.09 0.06 0.07 0.19 0.20 0.08 0.01 0.02 0.04 0.24 0.35 0.66 1.11 1.00 0.52 0.36 0.14 0.05 0.09 0.12 0.09 0.07 0.07 0.09 0.13 0.08 0.25 0.51
0.11 0.14 0.18 0.17 0.19 0.21 0.22 0.20 0.19 0.19 0.20 0.23 0.27 0.29 0.34 0.33 0.09 0.06 0.10 0.14 0.10 0.14 0.02 0.02 0.02 0.06 0.18 0.28 0.68 1.15 0.68 0.15 0.11 0.27 0.21 0.23 0.25 0.20 0.18 0.15 0.15 0.14 0.19 0.53 0.72
0.13 0.15 0.15 0.18 0.21 0.20 0.19 0.20 0.20 0.19 0.19 0.24 0.31 0.43 0.53 0.24 0.05 0.07 0.11 0.07 0.14 0.07 0.02 0.01 0.04 0.16 0.17 0.26 0.43 0.59 0.40 0.09 0.05 0.13 0.44 0.50 0.43 0.31 0.36 0.27 0.21 0.22 0.45 0.64 0.97
0.19 0.19 0.17 0.19 0.24 0.22 0.21 0.19 0.20 0.22 0.25 0.26 0.37 0.52 0.41 0.21 0.07 0.03 0.12 0.07 0.06 0.03 0.04 0.04 0.11 0.23 0.20 0.20 0.21 0.41 0.10 0.16 0.11 0.13 0.31 0.57 0.68 0.42 0.42 0.32 0.20 0.29 0.59 0.91 1.16
0.21 0.23 0.27 0.29 0.27 0.24 0.19 0.18 0.19 0.24 0.27 0.29 0.42 0.57 0.42 0.19 0.05 0.00 0.00 0.02 0.03 0.05 0.07 0.09 0.14 0.20 0.30 0.17 0.24 0.31 0.13 0.24 0.24 0.28 0.34 0.47 0.55 0.74 0.52 0.36 0.29 0.32 0.47 0.96 1.26
0.29 0.34 0.34 0.35 0.35 0.30 0.24 0.26 0.29 0.30 0.27 0.29 0.50 0.57 0.47 0.18 0.00 0.00 0.00 0.00 0.01 0.05 0.15 0.20 0.18 0.22 0.32 0.25 0.34 0.21 0.18 0.20 0.27 0.43 0.47 0.63 0.50 0.77 0.66 0.56 0.31 0.30 0.34 0.86 1.19
0.29 0.33 0.43 0.40 0.32 0.33 0.41 0.41 0.36 0.28 0.29 0.38 0.54 0.53 0.45 0.08 0.00 0.00 0.01 0.04 0.04 0.09 0.10 0.22 0.33 0.45 0.40 0.35 0.22 0.23 0.37 0.36 0.26 0.36 0.52 0.84 0.78 0.62 0.55 0.95 0.59 0.20 0.30 0.79 1.26
0.32 0.37 0.40 0.38 0.46 0.47 0.39 0.33 0.41 0.43 0.43 0.44 0.40 0.58 0.37 0.00 0.00 0.00 0.00 0.03 0.08 0.13 0.16 0.25 0.54 0.48 0.45 0.42 0.24 0.37 0.75 0.61 0.28 0.37 0.66 1.38 1.07 0.22 0.47 1.15 0.88 0.22 0.33 0.65 0.84
0.45 0.41 0.38 0.39 0.41 0.46 0.46 0.46 0.42 0.39 0.47 0.47 0.48 0.61 0.22 0.00 0.00 0.00 0.00 0.00 0.05 0.16 0.23 0.35 0.62 0.72 0.61 0.70 0.77 0.65 0.52 0.24 0.18 0.28 0.73 1.23 0.91 0.38 0.43 1.10 1.20 0.57 0.36 0.63 0.89
0.47 0.47 0.45 0.44 0.51 0.68 0.72 0.61 0.47 0.46 0.34 0.48 0.82 1.01 0.18 0.00 0.00 0.00 0.00 0.01 0.03 0.18 0.48 0.50 0.70 0.96 0.90 1.12 0.97 0.35 0.26 0.16 0.21 0.19 0.50 0.70 0.63 0.42 0.50 1.00 1.43 1.10 0.62 1.05 1.59
0.51 0.56 0.57 0.63 0.66 0.88 1.05 0.93 0.97 0.85 0.75 0.39 0.35 0.29 0.06 0.03 0.05 0.02 0.01 0.04 0.12 0.30 0.29 0.46 0.77 0.68 0.48 0.48 0.32 0.31 0.43 0.35 0.16 0.22 0.50 0.53 0.40 0.61 0.59 1.10 1.41 1.31 1.08 1.25 1.69
0.67 0.70 0.88 0.99 0.93 0.94 1.00 0.86 0.78 1.24 0.78 0.18 0.13 0.11 0.06 0.05 0.14 0.11 0.16 0.25 0.26 0.17 0.27 0.69 0.60 0.07 0.12 0.36 0.54 0.50 0.52 0.32 0.23 0.16 0.45 0.41 0.40 0.69 0.77 1.29 1.52 1.65 1.57 1.38 1.38
0.97 1.02 1.17 1.27 1.34 1.08 0.75 0.61 0.59 0.89 1.32 0.27 0.07 0.05 0.01 0.10 0.15 0.17 0.32 0.44 0.27 0.15 0.19 0.34 0.33 0.11 0.23 0.51 0.96 0.68 0.54 0.30 0.32 0.43 0.38 0.52 0.76 0.96 0.86 1.18 0.92 1.29 1.83 2.08 1.77
1.14 1.21 1.41 1.50 1.50 0.89 0.86 0.84 0.82 1.51 2.56 0.49 0.04 0.06 0.01 0.09 0.19 0.12 0.33 0.63 0.65 0.20 0.23 0.40 0.34 0.36 0.37 0.40 0.69 0.98 0.34 0.42 0.48 1.01 1.19 0.94 1.20 0.50 0.59 0.83 0.41 0.62 1.19 2.07 1.58
1.51 1.58 1.81 2.15 1.50 1.36 1.09 1.16 1.68 2.73 3.74 0.39 0.09 0.05 0.05 0.16 0.17 0.19 0.31 0.89 0.98 0.50 0.38 0.40 0.18 0.43 0.73 0.68 0.35 0.60 0.39 0.42 0.73 1.24 1.25 1.24 1.37 0.37 0.41 0.47 0.32 0.55 0.91 1.65 2.10
1.87 2.40 2.27 2.26 2.22 1.31 1.17 2.02 2.93 4.49 3.29 0.36 0.19 0.13 0.21 0.22 0.08 0.35 0.78 1.36 1.10 1.03 0.73 0.27 0.16 0.38 1.23 0.55 0.28 0.49 0.97 0.93 1.22 1.90 2.58 1.30 0.87 0.36 0.63 0.71 0.38 0.69 0.82 1.28 2.30
2.46 2.68 2.95 2.37 2.05 1.71 2.41 3.90 5.22 3.98 0.92 0.51 0.30 0.27 0.33 0.46 0.40 0.36 1.40 2.02 1.85 2.13 1.64 0.71 0.23 0.10 0.52 0.55 0.72 1.20 1.67 2.91 2.95 3.23 2.44 0.77 0.53 0.58 0.57 0.52 0.67 0.90 1.07 1.25 2.10
2.36 2.53 2.08 1.86 1.75 2.56 3.96 5.47 5.72 1.29 0.58 0.41 0.32 0.43 0.40 0.51 0.57 0.40 0.72 1.25 1.48 1.45 1.71 1.08 0.62 0.12 0.20 0.51 0.81 1.16 1.68 2.18 1.71 1.31 0.81 0.52 0.76 0.45 0.46 0.48 0.60 0.78 1.06 1.09 1.23
2.43 2.19 2.20 1.72 1.67 2.94 5.06 5.98 2.60 0.99 0.55 0.44 0.35 0.64 0.66 0.89 1.18 0.87 0.71 0.86 1.24 1.87 2.16 1.84 0.49 0.09 0.06 0.06 0.32 0.74 1.31 1.12 1.08 0.64 0.70 0.59 0.40 0.32 0.30 0.19 0.25 0.47 0.84 1.10 1.06
2.84 2.79 2.60 1.98 2.49 3.72 5.29 3.59 0.88 0.33 0.55 0.64 0.94 0.67 0.79 0.80 1.33 1.80 1.51 0.92 0.88 1.60 2.14 1.94 1.55 0.25 0.26 0.31 0.36 0.45 0.53 1.09 1.77 1.92 1.05 0.48 0.32 0.24 0.19 0.20 0.18 0.39 0.71 1.06 0.92
3.65 3.92 2.34 2.38 3.73 5.04 4.91 1.61 0.35 0.22 0.66 1.24 0.86 0.83 0.62 1.28 1.83 2.08 2.36 1.12 0.88 0.87 1.62 2.15 2.06 0.84 0.59 0.70 0.53 0.58 1.12 1.00 1.46 1.23 1.16 0.68 0.48 0.49 0.52 0.50 0.41 0.54 0.80 1.35 1.41
4.21 3.97 2.21 2.92 5.01 4.47 2.07 0.76 0.42 0.40 0.69 0.98 0.93 0.78 0.70 0.84 1.85 1.78 1.50 1.57 1.07 0.92 1.37 1.48 2.33 1.45 0.59 0.42 0.34 0.41 0.78 1.07 1.52 1.33 0.83 0.85 0.53 0.44 0.47 0.51 0.48 0.66 0.77 1.31 1.60
4.95 3.15 3.03 3.49 4.20 2.50 1.07 0.59 0.80 0.60 0.77 1.00 0.80 0.74 0.60 0.70 1.47 0.95 0.99 0.93 1.09 1.19 1.62 1.68 2.27 2.03 1.55 1.44 0.69 0.87 0.42 0.65 0.80 0.94 0.84 0.85 0.43 0.21 0.32 0.38 0.42 0.78 0.73 1.25 1.46
5.87 4.21 4.00 4.50 2.75 1.43 1.31 1.09 0.86 0.54 0.65 0.68 0.67 0.61 0.74 0.58 0.76 0.89 0.60 0.54 0.54 1.08 1.32 1.55 1.64 1.43 1.27 1.61 1.50 1.20 0.84 0.53 0.76 0.86 0.75 0.54 0.25 0.18 0.18 0.27 0.32 0.54 0.86 1.28 1.46
6.10 3.84 2.48 3.03 2.14 1.38 1.94 1.59 0.64 0.75 0.78 0.79 0.71 0.55 1.00 1.24 0.75 0.67 0.64 0.67 0.62 0.88 1.31 1.86 1.56 0.86 0.26 0.23 0.55 0.63 0.77 0.69 0.79 0.53 0.69 0.40 0.31 0.25 0.34 0.38 0.48 0.68 0.85 1.05 1.18
5.35 2.77 2.22 1.53 0.96 1.64 2.24 1.56 0.64 0.95 1.11 0.82 0.85 0.48 0.69 0.99 1.05 1.06 1.17 1.10 1.13 1.15 1.76 1.91 1.66 0.71 0.43 0.19 0.31 0.36 0.39 0.59 0.66 0.36 0.24 0.24 0.28 0.21 0.25 0.28 0.49 0.73 0.88 0.98 1.00
3.64 2.41 3.29 3.02 1.73 2.00 1.75 1.14 0.99 1.26 1.20 0.62 0.61 0.92 0.69 0.55 0.51 0.80 1.10 1.14 1.23 1.49 1.68 1.78 1.59 0.95 0.86 0.39 0.83 0.98 0.71 0.53 0.53 0.49 0.31 0.34 0.27 0.12 0.16 0.24 0.70 0.85 0.96 1.03 1.03